Weather History for Winchester, TN

Change the Weather History Date:

Sunday, October 21, 2012

  Actual Average (KTHA) Record (KTHA)
Temperature  
Mean Temperature 58 °F -  
Max Temperature 75 °F 68 °F 69 °F (2013)
Min Temperature 41 °F 44 °F 33 °F (2013)
Degree Days  
Heating Degree Days 7    
Growing Degree Days 8 (Base 50)    
Moisture  
Dew Point 46 °F    
Average Humidity 70    
Maximum Humidity 100    
Minimum Humidity 34    
Precipitation  
Precipitation 0.00 in - - ()
Sea Level Pressure  
Sea Level Pressure 30.11 in    
Wind  
Wind Speed 2 mph ()    
Max Wind Speed 8 mph    
Max Gust Speed -    
Visibility 10.0 miles    
Events      
Averages and records for this station are not official NWS values.
T = Trace of Precipitation, MM = Missing Value Source: Averaged Metar Reports

Daily Weather History Graph

Daily Weather History Graph

Search for Another Location

Airport:

Trip Planner

Search our weather history database for the weather conditions in past years. The results will help you decide how hot, cold, wet, or windy it might be!

Date:

Astronomy

Oct. 21, 2012 Rise Set
Actual Time 7:55 AM EDT 7:01 PM EDT
Civil Twilight 7:30 AM EDT 7:26 PM EDT
Nautical Twilight 7:00 AM EDT 7:56 PM EDT
Astronomical Twilight 6:31 AM EDT 8:25 PM EDT
Moon 2:11 PM EDT (10/21) No Moon Set
Length of Visible Light 11h 56m
Length of Day
11h 05m
Waxing Crescent, 45% of the Moon is Illuminated
Oct 21
Waxing Crescent
Oct 21
First Quarter
Oct 29
Full
Nov 6
Last Quarter
Nov 13
New

Hourly Weather History & Observations

Time (EDT) Temp. Windchill Dew Point Humidity Pressure Visibility Wind Dir Wind Speed Gust Speed Precip Events Conditions
12:15 AM 44.6 °F - 42.8 °F 93% 30.02 in 10.0 mi Calm Calm - N/A   Clear
12:35 AM 42.8 °F - 42.8 °F 100% 30.03 in 10.0 mi Calm Calm - N/A   Clear
12:55 AM 42.8 °F - 42.8 °F 100% 30.03 in 10.0 mi Calm Calm - N/A   Clear
1:15 AM 42.8 °F - 42.8 °F 100% 30.03 in 10.0 mi Calm Calm - N/A   Clear
1:35 AM 42.8 °F - 42.8 °F 100% 30.03 in 10.0 mi Calm Calm - N/A   Clear
1:55 AM 42.8 °F - 42.8 °F 100% 30.03 in 10.0 mi Calm Calm - N/A   Clear
2:15 AM 42.8 °F - 42.8 °F 100% 30.04 in 10.0 mi Calm Calm - N/A   Clear
2:35 AM 42.8 °F - 42.8 °F 100% 30.04 in 10.0 mi Calm Calm - N/A   Clear
2:55 AM 44.6 °F - 42.8 °F 93% 30.04 in 10.0 mi Calm Calm - N/A   Clear
3:15 AM 44.6 °F - 42.8 °F 93% 30.05 in 10.0 mi Calm Calm - N/A   Clear
3:35 AM 44.6 °F - 42.8 °F 93% 30.05 in 10.0 mi Calm Calm - N/A   Clear
3:55 AM 44.6 °F 43.1 °F 42.8 °F 93% 30.05 in 10.0 mi SE 3.5 mph - N/A   Clear
4:15 AM 44.6 °F - 42.8 °F 93% 30.06 in 10.0 mi Calm Calm - N/A   Clear
4:35 AM 44.6 °F - 42.8 °F 93% 30.06 in 10.0 mi Calm Calm - N/A   Clear
5:15 AM 42.8 °F - 41.0 °F 93% 30.08 in 10.0 mi Calm Calm - N/A   Clear
5:35 AM 44.6 °F - 42.8 °F 93% 30.09 in 10.0 mi Calm Calm - N/A   Clear
5:55 AM 44.6 °F - 42.8 °F 93% 30.10 in 10.0 mi Calm Calm - N/A   Clear
6:15 AM 42.8 °F - 41.0 °F 93% 30.11 in 10.0 mi Calm Calm - N/A   Clear
6:35 AM 42.8 °F - 41.0 °F 93% 30.11 in 10.0 mi Calm Calm - N/A   Clear
6:55 AM 41.0 °F - 39.2 °F 93% 30.11 in 10.0 mi Calm Calm - N/A   Clear
7:15 AM 42.8 °F - 41.0 °F 93% 30.11 in 10.0 mi Calm Calm - N/A   Clear
7:35 AM 42.8 °F 41.1 °F 41.0 °F 93% 30.12 in 10.0 mi South 3.5 mph - N/A   Clear
7:55 AM 42.8 °F 41.1 °F 42.8 °F 100% 30.12 in 10.0 mi SSE 3.5 mph - N/A   Clear
8:15 AM 44.6 °F 42.2 °F 42.8 °F 93% 30.13 in 10.0 mi SSE 4.6 mph - N/A   Clear
8:35 AM 46.4 °F 44.3 °F 44.6 °F 93% 30.13 in 10.0 mi ESE 4.6 mph - N/A   Clear
8:55 AM 50.0 °F - 44.6 °F 82% 30.13 in 10.0 mi ESE 6.9 mph - N/A   Clear
9:15 AM 51.8 °F - 46.4 °F 82% 30.13 in 10.0 mi ESE 8.1 mph - N/A   Clear
9:35 AM 53.6 °F - 46.4 °F 77% 30.14 in 10.0 mi ESE 6.9 mph - N/A   Clear
9:55 AM 55.4 °F - 46.4 °F 72% 30.15 in 10.0 mi SE 5.8 mph - N/A   Clear
10:15 AM 57.2 °F - 46.4 °F 67% 30.16 in 10.0 mi ESE 4.6 mph - N/A   Clear
10:35 AM 60.8 °F - 48.2 °F 63% 30.16 in 10.0 mi SE 4.6 mph - N/A   Clear
10:55 AM 62.6 °F - 48.2 °F 59% 30.16 in 10.0 mi Calm Calm - N/A   Clear
11:15 AM 62.6 °F - 48.2 °F 59% 30.16 in 10.0 mi SE 3.5 mph - N/A   Clear
11:35 AM 64.4 °F - 48.2 °F 56% 30.16 in 10.0 mi SE 5.8 mph - N/A   Clear
11:55 AM 66.2 °F - 48.2 °F 52% 30.16 in 10.0 mi SE 4.6 mph - N/A   Clear
12:15 PM 66.2 °F - 48.2 °F 52% 30.15 in 10.0 mi SE 5.8 mph - N/A   Clear
12:35 PM 68.0 °F - 48.2 °F 49% 30.15 in 10.0 mi ESE 4.6 mph - N/A   Clear
12:55 PM 69.8 °F - 48.2 °F 46% 30.15 in 10.0 mi Calm Calm - N/A   Clear
1:15 PM 71.6 °F - 48.2 °F 43% 30.14 in 10.0 mi Calm Calm - N/A   Clear
1:35 PM 71.6 °F - 48.2 °F 43% 30.13 in 10.0 mi Calm Calm - N/A   Clear
1:55 PM 73.4 °F - 48.2 °F 41% 30.13 in 10.0 mi Variable 3.5 mph - N/A   Clear
2:15 PM 73.4 °F - 46.4 °F 38% 30.12 in 9.0 mi Calm Calm - N/A   Clear
2:35 PM 73.4 °F - 44.6 °F 36% 30.11 in 10.0 mi Variable 3.5 mph - N/A   Clear
2:55 PM 75.2 °F - 46.4 °F 36% 30.11 in 10.0 mi Calm Calm - N/A   Clear
3:15 PM 75.2 °F - 46.4 °F 36% 30.10 in 10.0 mi Variable 4.6 mph - N/A   Clear
3:35 PM 75.2 °F - 48.2 °F 38% 30.10 in 10.0 mi WSW 3.5 mph - N/A   Clear
3:55 PM 75.2 °F - 46.4 °F 36% 30.10 in 10.0 mi Calm Calm - N/A   Clear
4:15 PM 75.2 °F - 46.4 °F 36% 30.10 in 10.0 mi WNW 4.6 mph - N/A   Clear
4:35 PM 75.2 °F - 46.4 °F 36% 30.10 in 10.0 mi Variable 4.6 mph - N/A   Clear
4:55 PM 75.2 °F - 44.6 °F 34% 30.10 in 10.0 mi SW 4.6 mph - N/A   Clear
5:15 PM 75.2 °F - 44.6 °F 34% 30.09 in 10.0 mi Calm Calm - N/A   Clear
5:35 PM 75.2 °F - 46.4 °F 36% 30.09 in 10.0 mi WSW 3.5 mph - N/A   Clear
5:55 PM 75.2 °F - 44.6 °F 34% 30.09 in 10.0 mi WSW 3.5 mph - N/A   Clear
6:15 PM 73.4 °F - 46.4 °F 38% 30.10 in 10.0 mi Calm Calm - N/A   Clear
6:35 PM 73.4 °F - 46.4 °F 38% 30.10 in 10.0 mi South 3.5 mph - N/A   Clear
6:55 PM 68.0 °F - 50.0 °F 52% 30.11 in 10.0 mi South 5.8 mph - N/A   Clear
7:15 PM 66.2 °F - 50.0 °F 56% 30.11 in 10.0 mi South 3.5 mph - N/A   Clear
7:35 PM 64.4 °F - 50.0 °F 59% 30.12 in 10.0 mi Calm Calm - N/A   Clear
7:55 PM 60.8 °F - 51.8 °F 72% 30.12 in 10.0 mi Calm Calm - N/A   Clear
8:15 PM 60.8 °F - 50.0 °F 68% 30.13 in 10.0 mi Calm Calm - N/A   Clear
8:35 PM 59.0 °F - 51.8 °F 77% 30.13 in 10.0 mi Calm Calm - N/A   Clear
8:55 PM 57.2 °F - 51.8 °F 82% 30.13 in 10.0 mi Calm Calm - N/A   Clear
9:15 PM 55.4 °F - 51.8 °F 88% 30.14 in 10.0 mi SE 3.5 mph - N/A   Clear
9:35 PM 57.2 °F - 48.2 °F 72% 30.14 in 10.0 mi SE 3.5 mph - N/A   Clear
9:55 PM 57.2 °F - 50.0 °F 77% 30.14 in 10.0 mi Calm Calm - N/A   Clear
10:15 PM 57.2 °F - 48.2 °F 72% 30.14 in 10.0 mi SE 5.8 mph - N/A   Clear
10:35 PM 57.2 °F - 50.0 °F 77% 30.14 in 10.0 mi Calm Calm - N/A   Clear
10:55 PM 57.2 °F - 50.0 °F 77% 30.15 in 10.0 mi SE 4.6 mph - N/A   Clear
11:15 PM 57.2 °F - 48.2 °F 72% 30.15 in 10.0 mi SE 5.8 mph - N/A   Clear
11:35 PM 57.2 °F - 48.2 °F 72% 30.15 in 10.0 mi ESE 6.9 mph - N/A   Clear
11:55 PM 57.2 °F - 48.2 °F 72% 30.15 in 10.0 mi ESE 4.6 mph - N/A   Clear